Other Public Products
Issued by NWS Grand Forks, ND

Home | Current Version | Previous Version | Text Only | Print | Product List | Glossary Off
Versions: 1 2 3 4 5 6 7 8 9 10 11 12 13 14 15 16 17 18 19 20 21 22 23 24 25 26 27 28 29 30 31 32 33 34 35 36 37 38 39 40 41 42 43 44 45 46 47 48 49 50

000
FPUS83 KFGF 272031
OPUFGF
PRAIRIE TO PINES WEATHER ROUNDUP
NATIONAL WEATHER SERVICE EASTERN NORTH DAKOTA/GRAND FORKS ND
300 PM CDT MON JUL 27 2015

 **SATELLITE DATA USED TO AUGMENT SKY COVER AT AUTOMATED STATIONS**
 *****  WEATHER ACROSS EASTERN NORTH DAKOTA  *****

CITY           SKY/WX    TMP DP  RH WIND       PRES   REMARKS
GRAND FORKS    PTSUNNY   84  71  65 SE13      29.81F
GRAND FORKS AF MOSUNNY   83  71  65 S10G20    29.82F
GRAND CITY NWS   N/A     82 N/A N/A SE6         N/A
BUXTON         NOT AVBL
DEVILS LAKE    SUNNY     84  68  58 SE18G25   29.78F
FARGO          PTSUNNY   87  72  60 SE14      29.82F HX  93
WAHPETON ARPT  PTCLDY    88  66  48 S15G22    29.84S HX  90
$$

 *****  WEATHER ACROSS CENTRAL AND WESTERN NORTH DAKOTA  *****

CITY           SKY/WX    TMP DP  RH WIND       PRES   REMARKS
JAMESTOWN      MOSUNNY   86  73  65 S13G25    29.79F HX  93
BISMARCK       MOSUNNY   91  71  51 S23G29    29.71F HX  97
MINOT          SUNNY     88  66  48 E21G31    29.68F HX  90
MINOT AFB      SUNNY     87  69  53 SE25      29.67F HX  91
GARRISON         N/A     85  72  65 SE16G22   29.68F HX  91
WILLISTON      MOSUNNY   91  56  30 SE14G22   29.67F
DICKINSON      SUNNY     89  65  44 SE17G33   29.66F HX  91
HETTINGER      MOSUNNY   88  63  43 SE20G29   29.71F
$$

 *****  OTHER OBSERVATIONS NORTHEAST NORTH DAKOTA  *****

CITY           SKY/WX    TMP DP  RH WIND       PRES   REMARKS
WALHALLA       FAIR      84  73  70 MISG      29.82F HX  91
LANGDON        FAIR      84  72  65 SE15      29.85S
CAVALIER       FAIR      84  72  65 SE8       29.82S
GRAFTON        FAIR      86  72  62 SE18G25   29.82S HX  92
CANDO          FAIR      82  72  69 SE20G25   29.79F
FORT TOTTEN    NOT AVBL
ROLLA            N/A     81  72  74 SE16G25   29.79F
RUGBY          NOT AVBL
 ***** THE ABOVE OBSERVATIONS ARE NON NWS ARE NOT QUALITY
        CONTROLLED AND MAY MIS-REPORT RAIN FOR SNOW...
$$

 *****  OTHER OBSERVATIONS SOUTHEAST NORTH DAKOTA *****

CITY           SKY/WX    TMP DP  RH WIND       PRES   REMARKS
COOPERSTOWN    NOT AVBL
VALLEY CITY    LGT RAIN  82  75  78 SE16G24   29.82S
OAKES            N/A     91  77  62 SE15G21   29.79F HX 105
GWINNER        FAIR      88  77  70 SE14G22   29.81F HX 100
SHEYENNE NWR     N/A     87  73  61 SE14      29.95S HX  94
BUFFALO        NOT AVBL
WYNDMERE         N/A     88  72  58 SE12        N/A  HX  94
 ***** THE ABOVE OBSERVATIONS ARE NON NWS ARE NOT QUALITY
       CONTROLLED AND MAY MIS-REPORT RAIN FOR SNOW...
$$

  *****  WEATHER ACROSS NORTHERN MINNESOTA  *****

CITY           SKY/WX    TMP DP  RH WIND       PRES   REMARKS
FLAG ISLAND    MOSUNNY   82  66  57 S5        29.89F
WARROAD        MOSUNNY   84  70  61 SE10      29.89F
ROSEAU         MOSUNNY   86  70  58 S12       29.88F HX  90
HALLOCK        MOSUNNY   88  72  58 SE12      29.82F HX  94
THF RVR FALLS  MOSUNNY   82  72  69 SE8       29.87S
HALSTAD        NOT AVBL
FOSSTON        PTSUNNY   86  73  66 SE9       29.88F HX  93
BAUDETTE       MOSUNNY   88  63  43 S10       29.90F
WASKISH        MOSUNNY   84  70  61 SE7       29.90F
CROOKSTON      MOSUNNY   82  72  69 S12       29.84F
$$
  *****  WEATHER ACROSS CENTRAL AND WEST MINNESOTA  *****

CITY           SKY/WX    TMP DP  RH WIND       PRES   REMARKS
BEMIDJI        PTSUNNY   84  70  62 SE12G17   29.90F
PARK RAPIDS    PTSUNNY   87  67  51 SE16      29.90F HX  90
WADENA         MOSUNNY   84  70  61 S13       29.90S
DETROIT LAKES  MOSUNNY   82  68  61 SE14      29.89F
MOORHEAD       PTSUNNY   84  73  70 SE7       29.84S HX  91
FERGUS FALLS   MOSUNNY   86  70  58 SE13      29.85S HX  90
ELBOW LAKE     MOCLDY    83  72  69 SE13G21   29.86S
MORRIS MN      MOSUNNY   84  73  70 SE20      29.86S HX  91
STAPLES        MOSUNNY   84  68  58 S12       29.91S
WHEATON        MOSUNNY   82  72  69 SE17      29.85S
$$
  *****  WEATHER ELSEWHERE ACROSS MINNESOTA  *****

CITY           SKY/WX    TMP DP  RH WIND       PRES   REMARKS
DULUTH         MOSUNNY   85  61  44 SE13      29.97F
INTRNTL FALLS  MOSUNNY   87  64  46 SE8       29.92S
ELY            SUNNY     88  50  27 S8G17     29.96F
CLOQUET        MOSUNNY   82  63  51 S7        29.97S
BRAINERD       MOSUNNY   85  68  56 SE13G20   29.92F
HIBBING        SUNNY     87  62  43 S8G17     29.95S
ALEXANDRIA     PTSUNNY   85  72  65 SE17      29.91S HX  91
SAINT CLOUD    PTSUNNY   86  71  60 S14G21    29.91S HX  91
MINNEAPOLIS    CLOUDY    84  71  65 SE16      29.93F
$$

  *****  WEATHER ACROSS SOUTH DAKOTA  *****

CITY           SKY/WX    TMP DP  RH WIND       PRES   REMARKS
SIOUX FALLS    MOSUNNY   84  69  60 S22       29.85F
BROOKINGS      SUNNY     86  66  51 S18G24    29.88R
WATERTOWN      PTSUNNY   88  74  63 S18G25    29.84F HX  96
HURON          MOSUNNY   89  73  59 S18G29    29.78S HX  97
SISSETON         N/A     86  74  67 S17G25    29.81F HX  94
ABERDEEN       MOSUNNY   91  75  59 S15       29.78S HX 101
MITCHELL       MOSUNNY   86  71  60 SE24G31   29.80F HX  91
PIERRE         SUNNY     95  63  34 SE25G35   29.69F HX  96
MOBRIDGE       SUNNY     93  67  42 SE22G30   29.70F HX  96
RAPID CITY     MOSUNNY   90  65  43 S15G24    29.71F HX  92
$$

  *****  SOME WEATHER IN NEARBY STATES *****

CITY           SKY/WX    TMP DP  RH WIND       PRES   REMARKS
GLASGOW MT     PTSUNNY   82  58  43 N16       29.66F
GREAT FALLS MT LGT RAIN  54  52  93 NW8       29.93F
CHEYENNE WY    MOSUNNY   90  43  19 VRB6      29.92F
SCOTTSBLUFF NE SUNNY     93  66  40 SE16      29.78F HX  96
OMAHA NE       MOSUNNY   88  74  63 S12       29.88F HX  96
DES MOINES IA  LGT RAIN  74  69  85 NE17      29.94F
DAVENPORT IA   PTSUNNY   84  71  65 E10       29.99S
CHICAGO IL     MOSUNNY   87  59  38 E14G21    29.99F
EAU CLAIRE WI  MOSUNNY   85  64  49 SE13      29.98F
LA CROSSE WI   PTSUNNY   86  67  52 SE12      29.97F
$$

  *****  SOME NATIONAL WEATHER *****

CITY           SKY/WX    TMP DP  RH WIND       PRES   REMARKS
LA GUARDIA NY  MOSUNNY   84  66  54 S15G22    29.98F
RALEIGH NC     PTSUNNY   89  72  56 VRB5      29.98F HX  96
ATLANTA GA     PTSUNNY   90  69  50 SW5       29.98F HX  94
NEW ORLEANS LA MOSUNNY   92  70  48 S9        29.95F HX  97
OKLAHOMA CITY  MOSUNNY   94  70  45 S16       29.90F HX 100
ALBUQUERQUE NM MOSUNNY   86  51  29 SW6       30.10F
SALT LAKE CITY MOSUNNY   72  44  36 N9        30.03F
LOS ANGELES CA SUNNY     75  61  61 SW13      29.93S
BOISE ID       MOSUNNY   71  35  26 W18G31    30.04F
SEATTLE WA     MOSUNNY   67  51  56 SW8       30.22S
$$

*** WEATHER ACROSS MANITOBA...SASKATCHEWAN AND ONTARIO ***
                ***ONTARIO***

CITY           SKY/WX    TMP DP  RH WIND       PRES   REMARKS
GERALDTON      MOSUNNY   88  70  55 SW9       29.93F HX  92
THUNDER BAY    MOSUNNY   81  66  61 NE7       29.96F
SIOUX LOOKOUT  PTSUNNY   88  61  40 W10       29.92F
TORONTO        MOSUNNY   86  57  37 SE9       29.99F
BIG TROUT LK   SUNNY     84  61  45 NW13G18   29.78S
PICKLE LAKE    PTSUNNY   90  59  35 W14G22    29.87F
DRYDEN         SUNNY     88  57  35 S13G18    29.93S
KENORA         PTSUNNY   86  66  51 S8        29.93S
$$
                *** MANITOBA***

CITY           SKY/WX    TMP DP  RH WIND       PRES   REMARKS
BRANDON        PTSUNNY   84  72  65 E17G25    29.76F
DAUPHIN        MOSUNNY   79  63  57 NE16      29.82F
ISLAND LAKE    MOSUNNY   81  57  44 W13       29.84S
PILOT MOUND      N/A     81  72  74 SE15        N/A
THE PAS        CLOUDY    73  52  46 SW3       29.90R
THOMPSON       PTSUNNY   77  55  47 W8G17     29.80S
WINNIPEG       PTSUNNY   86  72  62 SE10G18   29.83F HX  92
LYNN LAKE      MOSUNNY   75  50  41 W8G18     29.81S
CHURCHILL      LGT RAIN  68  59  73 E13       29.66F
GILLAM         MOSUNNY   75  63  64 W9        29.76R
$$
                ***SASKATCHEWAN***

CITY           SKY/WX    TMP DP  RH WIND       PRES   REMARKS
ESTEVAN        MOSUNNY   84  66  54 E13G24    29.72F
KINDERSLEY     LGT RAIN  63  59  88 S7        29.87R
LLOYDMINSTER   CLOUDY    66  52  59 NW9       29.91S
PRINCE ALBERT  CLOUDY    66  63  88 S3        29.89F
REGINA         PTSUNNY   64  59  82 NE22      29.79F


USA.gov is the U.S. government's official web portal to all federal, state and local government web resources and services.